STARLINK-37026, 68075

Orbit data source: Space-Track

STARLINK-37026, 68075 is a payload satellite owned by SpaceX/Seattle (US) in LEO that was launched on Wed, 04 Mar 2026 UTC via an FALCON 9 launch vehicle from the Air Force Eastern Test Range (AFETR). Payload-class satellites include a variety of spacecraft equipped with specific instruments for various scientific and technological missions. These include communications satellites like Starlink; space stations such as the ISS; scientific satellites like the Hubble; Earth observation satellites from companies like Planet Labs, Umbra, and HawkEye 360; GPS; miniature CubeSats for education and research; and military/defense satellites.

Loading next visibility...
Identifier
68075, 2026-042G
Orbit
LEO
Country
Flag of USUS
Related business
Manufacturer
SpaceX/Seattle
Mission
Operational Commercial Communications
Bus & Motor
STARLINK V2MO, Unknown motor
Mass
575 kg wet, ~530 kg dry
Launch date (UTC)
2026-03-04 (4 months ago)
Launch vehicle
FALCON 9
Launch site
Air Force Eastern Test Range (AFETR)
Object type
Payload
Rocket body
Debris
Shape & HBR
Box + 2 Pan, 17.7 m
Radar Cross Section
36.964 m², Large (>1 m²)

Expand to show TLE details & history
Last TLE update: 22 hours ago

TLE from 22 hours ago
0 STARLINK-37026
1 68075U 26042G   26170.92471338  .00028967  00000-0  86478-3 0  9991
2 68075  53.1575  62.7404 0001095  88.1032 272.0096 15.34413866 17975
Epoch: 2026-06-19T22:11Z
TLE epoch observation values (Epoch: 2026-06-19T22:11:35.236Z)
Latitude
Longitude
-178.30312°
Altitude
463.537 km
Speed
7.636 km/s
True Right ascension
04h 10m 57s
True Declination
0° 00' 00"
Sunlit
Object was in daylight at epoch
Visualization orbit readout
Latitude
Unknown
Longitude
Unknown
Altitude
Unknown
Speed
Unknown
Apparent Right ascension
Unknown
Apparent Declination
Unknown
Sunlit
N/A
Visualization observer readout
Local Sidereal Time
07:19:13
Azimuth
Unknown
Elevation
Unknown
Doppler factor
Unknown
Orbital elements
Apogee altitude
463.668 km
Perigee altitude
462.17 km
Semi-major axis
6,841.056 km
Eccentricity
0.00011
Inclination
53.1575°
RAAN
62.7404°
Arg. of periapsis
88.1032°
True anomaly
271.99706°
Mean anomaly
272.0096°
Eccentric anomaly
272.00333°
Mean motion
3.83582 °/min
Orbital period
93.85 mins
BSTAR
0.00086478
Loading maneuver chart data...
Computing Atmospheric mass density...
Loading historical data...
Loading historical data...
Loading historical data...
Loading historical data...
Loading historical data...
Loading historical data...
Loading historical data...

Documentation

Showing up to 5 results
|